Miami Beach, Florida, United States (33109)
Lat: 25.79N, Lon: 80.13W
Wx Zone: FLZ173
Local Info
Past Weather Observations for Saturday, November 22, 2014

NOTE: This archive is for the closest National Weather Service station to Miami Beach. Information may differ from the station used for current weather conditions.

Click here for Long-term Archive

Time Weather Temperature Dewpoint Humidity Pressure Winds Precip Visibility
23:53
Mostly Cloudy
77°F / 25°C 72°F / 22°C 83% 30.06 in
(1018 mb)
ESE 15 mph
(ESE 24 kph)
- 9SM
22:53
Mostly Cloudy
77°F / 25°C 72°F / 22°C 83% 30.09 in
(1019 mb)
ESE 15 mph
(ESE 24 kph)
0.00 in
(0.00 mm)
10SM
22:50
Mostly Cloudy
77°F / 25°C 72°F / 22°C 83% 30.09 in
(1019 mb)
ESE 18.4 mph
(ESE 30 kph)
0.00 in
(0.00 mm)
10SM
21:53
Overcast
79°F / 26°C 72°F / 22°C 79% 30.09 in
(1019 mb)
ESE 16.1 mph
(ESE 26 kph)
- 10SM
20:53
Overcast
77°F / 25°C 72°F / 22°C 83% 30.09 in
(1019 mb)
E 21.9 mph
(E 35 kph)
- 10SM
19:53
Overcast
77°F / 25°C 72°F / 22°C 83% 30.09 in
(1019 mb)
E 15 mph
(E 24 kph)
0.00 in
(0.00 mm)
10SM
18:53
Overcast
77°F / 25°C 70°F / 21°C 79% 30.09 in
(1019 mb)
E 18.4 mph
(E 30 kph)
0.00 in
(0.00 mm)
10SM
18:25
Overcast
77°F / 25°C 70°F / 21°C 79% 30.06 in
(1018 mb)
E 21.9 mph
(E 35 kph)
0.00 in
(0.00 mm)
7SM
17:53
Overcast
79°F / 26°C 70°F / 21°C 74% 30.06 in
(1018 mb)
E 18.4 mph
(E 30 kph)
0.00 in
(0.00 mm)
10SM
16:53
Overcast
79°F / 26°C 70°F / 21°C 74% 30.06 in
(1018 mb)
E 18.4 mph
(E 30 kph)
0.00 in
(0.00 mm)
10SM
15:53
Overcast
79°F / 26°C 70°F / 21°C 74% 30.09 in
(1019 mb)
E 18.4 mph
(E 30 kph)
- 10SM
14:53
Overcast
79°F / 26°C 70°F / 21°C 74% 30.09 in
(1019 mb)
E 19.6 mph
(E 32 kph)
- 10SM
13:53
Overcast
79°F / 26°C 70°F / 21°C 74% 30.09 in
(1019 mb)
E 23 mph
(E 37 kph)
- 10SM
12:53
Overcast
81°F / 27°C 68°F / 20°C 66% 30.12 in
(1020 mb)
E 23 mph
(E 37 kph)
- 10SM
11:53
Overcast
81°F / 27°C 68°F / 20°C 66% 30.15 in
(1021 mb)
E 23 mph
(E 37 kph)
- 10SM
10:53
Overcast
79°F / 26°C 70°F / 21°C 74% 30.18 in
(1022 mb)
ENE 19.6 mph
(ENE 32 kph)
- 10SM
09:53
Overcast
79°F / 26°C 68°F / 20°C 70% 30.18 in
(1022 mb)
E 20.7 mph
(E 33 kph)
0.00 in
(0.00 mm)
10SM
08:53
Overcast
79°F / 26°C 68°F / 20°C 70% 30.18 in
(1022 mb)
E 20.7 mph
(E 33 kph)
- 10SM
07:53
Overcast
77°F / 25°C 68°F / 20°C 74% 30.15 in
(1021 mb)
E 17.3 mph
(E 28 kph)
- 10SM
06:53
Overcast
75°F / 24°C 68°F / 20°C 78% 30.15 in
(1021 mb)
E 13.8 mph
(E 22 kph)
0.00 in
(0.00 mm)
10SM
05:53
Overcast
77°F / 25°C 68°F / 20°C 74% 30.15 in
(1021 mb)
E 13.8 mph
(E 22 kph)
0.00 in
(0.00 mm)
10SM
04:53
Mostly Cloudy
75°F / 24°C 68°F / 20°C 78% 30.15 in
(1021 mb)
E 18.4 mph
(E 30 kph)
0.00 in
(0.00 mm)
10SM
03:53
Mostly Cloudy
75°F / 24°C 68°F / 20°C 78% 30.15 in
(1021 mb)
ENE 15 mph
(ENE 24 kph)
- 10SM
02:53
Mostly Cloudy
75°F / 24°C 66°F / 19°C 74% 30.12 in
(1020 mb)
E 16.1 mph
(E 26 kph)
- 10SM
01:53
Overcast
75°F / 24°C 66°F / 19°C 74% 30.12 in
(1020 mb)
ENE 16.1 mph
(ENE 26 kph)
- 10SM
00:53
Overcast
75°F / 24°C 66°F / 19°C 74% 30.15 in
(1021 mb)
ENE 13.8 mph
(ENE 22 kph)
- 10SM
Time Weather Temperature Dewpoint Humidity Pressure Winds Precip Visibility


Weather for websites

WeatherForYou.com, LLC is not responsible for any damages or problems caused by this service. Current weather conditions are obtained from the closest station including government and personal stations which may have varying degrees of accuracy. Weather forecasts are derived from the NOAA NDFD. Like all things, this site belongs to Jesus Christ... He just trusts me to maintain it. If you have any questions or comments email webmaster@weatherforyou.com

Copyright © 2014, WeatherForYou.com LLC. All rights reserved.